Вернуться в каталог

SL-26 R/B

LostHEO
NORAD 37213·ROCKET BODY·🇷🇺 Russia

Запущен Nov 2, 2010 с Plesetsk Cosmodrome

Loading…

Ближайшие Пролёты (ближайшие 24 часа)

TLE

УстаревшееSource: Space-Track

Эпоха: Aug 10, 2026, 18:32 UTC

1 37213U 10058B   26222.77227860  .00001027  00000-0  00000+0 0  9992
2 37213  63.7058  62.5652 7046271 261.1397  20.1542  2.00724267115527

Отслеживайте SL-26 R/B в реальном времени с AllMySat

Download on the App Store